Simultaneous Nadir Overpasses (SNOs) Predictions

Prediction of SNOs between FY3D and NOAA-19 Satellite Orbit:

Table of predicted SNOs for the next 14.0 days since TLE Epoch: 6/4/2022
Index Date (FY3D) Time (FY3D) Lat,Lon (FY3D) SZA (FY3D ) Date (NOAA-19) Time (NOAA-19) Lat,Lon (NOAA-19) SZA (NOAA-19 ) Distance(km) Time Diff (sec)
1 06/17/2022 02:03:56 77.38, 132.83 54.51 06/17/2022 02:02:43 77.40, 132.01 54.62 20.18 73
2 06/17/2022 02:54:44 -77.49, -60.38 125.35 06/17/2022 02:53:36 -77.50, -60.24 125.33 3.44 68
3 06/17/2022 03:45:30 77.49, 106.94 54.65 06/17/2022 03:44:41 77.48, 106.89 54.66 1.60 49
4 06/17/2022 04:36:15 -77.48, -85.69 125.37 06/17/2022 04:35:36 -77.50, -85.76 125.33 2.65 39
5 06/17/2022 05:27:02 77.52, 81.43 54.69 06/17/2022 05:26:40 77.52, 81.57 54.68 3.45 22
6 06/17/2022 06:17:47 -77.50,-111.20 125.34 06/17/2022 06:17:36 -77.49,-111.28 125.34 2.39 11
7 06/17/2022 07:08:33 77.50, 56.12 54.67 06/17/2022 07:08:40 77.51, 56.05 54.68 1.83 7
8 06/17/2022 07:59:19 -77.53,-136.70 125.30 06/17/2022 07:59:35 -77.53,-136.59 125.32 2.69 16
9 06/17/2022 08:50:05 77.53, 30.61 54.70 06/17/2022 08:50:40 77.51, 30.54 54.67 3.09 35
10 06/17/2022 09:40:50 -77.52,-162.02 125.32 06/17/2022 09:41:35 -77.52,-162.11 125.32 2.42 45
11 06/17/2022 10:31:37 77.56, 5.10 54.73 06/17/2022 10:32:39 77.54, 5.22 54.69 3.20 62
12 06/17/2022 11:22:22 -77.54, 172.48 125.29 06/17/2022 11:23:34 -77.56, 172.57 125.30 2.80 72



Historial Predications of SNOs between FY3D and NOAA-19
